Flag for Germany Weather past 2 weeks in Ellwangen (Jagst), Baden-Württemberg, Germany

Now
61 °F

Clear.


Feels Like: 61 °F
Forecast: 55 / 71 °F
Wind: 3 mph from Southwest

Location: Stoetten

Current Time: Sep 19, 2014 at 4:37:15 AM

Latest Report: Sep 19, 2014 at 4:00 AM


Visibility: 9 mi

Pressure: 29.91 "Hg

Humidity: 81%

Dew point: 55 °F

Location of Ellwangen (Jagst)Location

Historic Weather in Ellwangen (Jagst) — Graph

°F

Ellwangen (Jagst) temperature yesterday

Maximum temperature yesterday: 69 °F (at 4:00 PM)
Minimum temperature yesterday: 55 °F (at 8:00 AM)
Average temperature yesterday: 61 °F

Past Weeks' High & Low Weather Summary

 TemperatureHumidityPressure
High71 °F (Sep 7, 3:00 PM)100% (Sep 11, 9:00 AM)30.16 "Hg (Sep 11, 9:00 AM)
Low47 °F (Sep 11, 7:00 AM)51% (Sep 7, 3:00 PM)29.84 "Hg (Sep 18, 4:00 PM)
Average58 °F88%29.99 "Hg
* Reported Sep 4 3:00 AM — Sep 19 3:00 AM, Ellwangen (Jagst), Weather by CustomWeather, © 2014

Note: Actual official high and low records may vary slightly from our data, if they occured in-between our weather recording intervals... More about our weather records

Advertising

Ellwangen (Jagst) weather history for previous 24 hours

 ConditionsComfort  
Time TempWeatherWind HumidityBarometerVisibility
3:00 AM
Sep 19
61 °FClear.3 mph86%29.92 "Hg6 mi
2:00 AM60 °FFog.2 mph96%29.92 "Hg2 mi
1:00 AM60 °FFog.2 mph95%29.92 "Hg2 mi
12:00 AM60 °FFog.3 mph93%29.93 "Hg2 mi
11:00 PM
Sep 18
60 °FPassing clouds.3 mph89%29.93 "Hg8 mi
10:00 PM60 °FOvercast.1 mph94%29.93 "Hg6 mi
9:00 PM62 °FOvercast.2 mph89%29.91 "Hg11 mi
8:00 PM63 °FOvercast.1 mph91%29.90 "Hg11 mi
7:00 PM64 °FRain. Overcast.2 mph93%29.90 "Hg9 mi
6:00 PM66 °FThundershowers. Overcast.3 mph81%29.88 "Hg11 mi
5:00 PM67 °FThunderstorms. Overcast.1 mph80%29.86 "Hg11 mi
4:00 PM69 °FOvercast.2 mph73%29.84 "Hg11 mi
3:00 PM68 °FOvercast.2 mph73%29.84 "Hg11 mi
2:00 PM67 °FOvercast.2 mph75%29.85 "Hg11 mi
1:00 PM66 °FOvercast.2 mph77%29.86 "Hg10 mi
12:00 PM65 °FPartly sunny.2 mph81%29.87 "Hg10 mi
11:00 AM60 °FPartly sunny.3 mph88%29.89 "Hg10 mi
10:00 AM61 °FScattered clouds.3 mph85%29.88 "Hg11 mi
9:00 AM56 °FScattered clouds.3 mph91%29.90 "Hg11 mi
8:00 AM55 °FOvercast.3 mph92%29.91 "Hg10 mi
7:00 AM55 °FOvercast.3 mph91%29.89 "Hg10 mi
6:00 AM55 °FOvercast.3 mph93%29.89 "Hg11 mi
5:00 AM56 °FFog.5 mph94%29.88 "Hg3 mi
4:00 AM58 °FOvercast.3 mph89%29.88 "Hg5 mi
Weather by CustomWeather, © 2014

See weather overviewHow to use our weather pages